Tracking 25949 objects as of 9-Aug-2022
HD Live streaming from Space Station
objects crossing your sky now

STARLINK-4344

Track STARLINK-4344 now!
10-day predictions
STARLINK-4344 is classified as:


NORAD ID: 53072
Int'l Code: 2022-077AF
Perigee: 430.9 km
Apogee: 433.6 km
Inclination: 97.7 °
Period: 93.1 minutes
Semi major axis: 6803 km
RCS: Unknown
Launch date: July 11, 2022
Source: United States (US)
Launch site: AIR FORCE WESTERN TEST RANGE (AFWTR)
aabbcc
Your satellite tracking list
Your tracking list is empty




NASA's NSSDC Master Catalog

Two Line Element Set (TLE):
1 53072U 22077AF  22220.91667824 -.01215399  00000-0 -26366-1 0  9992
2 53072  97.6555  40.7949 0001947  62.4540  62.7689 15.47136297  1308
Source of the keplerian elements: AFSPC